Tracking 35274 objects as of 12-Sep-2026
HD Live streaming from Space Station
objects crossing your sky now

SPACEBEENZ-19


SPACEBEENZ-19 is no longer on orbit


NORAD ID: 52404
Int'l Code: 2022-047L
Launch date: May 2, 2022
Source: United States (US)
Launch site: Rocket Lab Launch Complex (RLLC)
Decay date: 2023-12-30
Your satellite tracking list
Your tracking list is empty




NASA's NSSDC Master Catalog

Two Line Element Set (TLE):
1 52404U 22047L   23361.23130185  .06113352  24246-5  25390-2 0  9993
2 52404  97.3829  91.5972 0011071 311.4912  48.5427 16.23013078 93675
Source of the keplerian elements: AFSPC